Winston-Salem, NC

4:53 AM EDT on July 21, 2017 (GMT -0400)
Smith Reynolds

Weather History for KINT - May, 2014

Change the Weather History Date:

Tuesday, May 13, 2014

  Actual Average Record
Temperature  
Mean Temperature 76 °F -  
Max Temperature 89 °F 74 °F 90 °F (2000)
Min Temperature 63 °F 54 °F 33 °F (1969)
Cooling Degree Days 11    
Growing Degree Days 26 (Base 50)    
Moisture  
Dew Point 62 °F    
Average Humidity 61    
Maximum Humidity 90    
Minimum Humidity 36    
Precipitation  
Precipitation 0.00 in - - ()
Sea Level Pressure  
Sea Level Pressure 30.12 in    
Wind  
Wind Speed 2 mph (SSW)    
Max Wind Speed 12 mph    
Max Gust Speed 16 mph    
Visibility 10 miles    
Events      
Averages and records for this station are not official NWS values.
T = Trace of Precipitation, MM = Missing Value Source: NWS Daily Summary

Daily Weather History Graph

Daily Weather History Graph

Search for Another Location

Airport or City:

Trip Planner

Search our weather history database for the weather conditions in past years. The results will help you decide how hot, cold, wet, or windy it might be!

Date:

Astronomy

May. 13, 2014 Rise Set
Actual Time 6:16 AM EDT 8:18 PM EDT
Civil Twilight 5:48 AM EDT 8:46 PM EDT
Nautical Twilight 5:13 AM EDT 9:21 PM EDT
Astronomical Twilight 4:36 AM EDT 9:59 PM EDT
Moon 7:20 PM EDT (5/13) 5:28 AM EDT (5/13)
Length of Visible Light 14h 58m
Length of Day
14h 02m
Waxing Gibbous, 98% of the Moon is Illuminated
May 13
Waxing Gibbous
May 14
Full
May 21
Last Quarter
May 28
New
Jun 5
First Quarter

Hourly Weather History & Observations

Time (EDT) Temp. Heat Index Dew Point Humidity Pressure Visibility Wind Dir Wind Speed Gust Speed Precip Events Conditions
12:54 AM 68.0 °F - 61.0 °F 78% 30.11 in 10.0 mi Calm Calm - N/A   Clear
1:54 AM 66.2 °F - 60.8 °F 83% 30.14 in 10.0 mi Calm Calm - N/A   Clear
2:54 AM 66.0 °F - 60.1 °F 81% 30.11 in 10.0 mi Calm Calm - N/A   Clear
3:54 AM 66.9 °F - 61.0 °F 81% 30.12 in 10.0 mi Calm Calm - N/A   Clear
4:54 AM 64.9 °F - 61.0 °F 87% 30.12 in 10.0 mi Calm Calm - N/A   Clear
5:54 AM 63.0 °F - 60.1 °F 90% 30.12 in 10.0 mi Calm Calm - N/A   Clear
6:54 AM 68.0 °F - 62.1 °F 81% 30.12 in 10.0 mi Calm Calm - N/A   Clear
7:54 AM 71.1 °F - 63.0 °F 75% 30.14 in 10.0 mi SW 3.5 mph - N/A   Clear
8:54 AM 75.2 °F - 62.6 °F 65% 30.17 in 10.0 mi WSW 6.9 mph - N/A   Clear
9:54 AM 78.1 °F - 64.0 °F 62% 30.14 in 10.0 mi SW 8.1 mph - N/A   Clear
10:54 AM 82.0 °F 83.8 °F 64.9 °F 56% 30.15 in 10.0 mi South 4.6 mph - N/A   Clear
11:54 AM 84.2 °F 85.6 °F 64.4 °F 51% 30.18 in 10.0 mi Variable 3.5 mph - N/A   Clear
12:54 PM 86.0 °F 86.3 °F 62.1 °F 44% 30.14 in 10.0 mi Variable 4.6 mph - N/A   Partly Cloudy
1:54 PM 88.0 °F 88.4 °F 62.1 °F 42% 30.12 in 10.0 mi SSW 5.8 mph - N/A   Scattered Clouds
2:54 PM 87.1 °F 87.0 °F 61.0 °F 41% 30.10 in 10.0 mi Variable 4.6 mph - N/A   Scattered Clouds
3:54 PM 89.1 °F 88.2 °F 59.0 °F 36% 30.07 in 10.0 mi South 8.1 mph - N/A   Clear
4:54 PM 88.0 °F 87.1 °F 59.0 °F 37% 30.07 in 10.0 mi Variable 4.6 mph - N/A   Scattered Clouds
5:54 PM 88.0 °F 87.1 °F 59.0 °F 37% 30.07 in 10.0 mi South 11.5 mph 16.1 mph N/A   Mostly Cloudy
6:54 PM 86.0 °F 85.4 °F 59.0 °F 40% 30.06 in 10.0 mi SSW 6.9 mph - N/A   Partly Cloudy
7:54 PM 84.0 °F 83.8 °F 59.0 °F 43% 30.08 in 10.0 mi South 4.6 mph - N/A   Clear
8:54 PM 80.1 °F 81.2 °F 62.1 °F 54% 30.09 in 10.0 mi Calm Calm - N/A   Clear
9:54 PM 75.0 °F - 63.0 °F 66% 30.11 in 10.0 mi SE 4.6 mph - N/A   Clear
10:54 PM 73.9 °F - 63.0 °F 68% 30.13 in 10.0 mi Calm Calm - N/A   Mostly Cloudy
11:54 PM 75.0 °F - 63.0 °F 66% 30.13 in 10.0 mi Calm Calm - N/A   Clear